Weather History for Luverne, MN

Change the Weather History Date:

Wednesday, June 18, 2014

  Actual Average (KFSD) Record (KFSD)
Temperature  
Mean Temperature 75 °F 69 °F  
Max Temperature 82 °F 80 °F 101 °F (1953)
Min Temperature 68 °F 57 °F 42 °F (1902)
Degree Days  
Heating Degree Days 0 1  
Month to date heating degree days 43  
Since 1 June heating degree days 43  
Since 1 July heating degree days 7698  
Cooling Degree Days 10 5  
Month to date cooling degree days 60  
Year to date cooling degree days 96  
Since 1 June cooling degree days 60  
Growing Degree Days 25 (Base 50)    
Moisture  
Dew Point 67 °F    
Average Humidity 77    
Maximum Humidity 84    
Minimum Humidity 68    
Precipitation  
Precipitation 0.71 in 0.13 in 1.94 in (1955)
Month to date precipitation 2.39  
Year to date precipitation 11.72  
Snow  
Snow 0.00 in 0.00 in 0.00 in ()
Month to date snowfall 0.0  
Since 1 June snowfall 0.0  
Since 1 July snowfall 44.5  
Snow Depth -    
Sea Level Pressure  
Sea Level Pressure 29.76 in    
Wind  
Wind Speed 11 mph (ESE)    
Max Wind Speed 21 mph    
Max Gust Speed 28 mph    
Visibility 10 miles    
Events Rain , Thunderstorm    
T = Trace of Precipitation, MM = Missing Value Source: NWS Daily Summary

Daily Weather History Graph

Daily Weather History Graph

Search for Another Location

Airport:

Trip Planner

Search our weather history database for the weather conditions in past years. The results will help you decide how hot, cold, wet, or windy it might be!

Date:

Astronomy

Jun. 18, 2014 Rise Set
Actual Time 5:42 AM CDT 9:09 PM CDT
Civil Twilight 5:07 AM CDT 9:45 PM CDT
Nautical Twilight 4:19 AM CDT 10:32 PM CDT
Astronomical Twilight 3:20 AM CDT 11:31 PM CDT
Moon 12:28 AM CDT (6/18) 12:18 PM CDT (6/18)
Length of Visible Light 16h 38m
Length of Day
15h 26m
Waning Gibbous, 62% of the Moon is Illuminated
Jun 18
Waning Gibbous
Jun 19
Last Quarter
Jun 27
New
Jul 5
First Quarter
Jul 12
Full

Hourly Weather History & Observations

Time (CDT) Temp. Heat Index Dew Point Humidity Pressure Visibility Wind Dir Wind Speed Gust Speed Precip Events Conditions
12:15 AM 73.4 °F - 68.0 °F 83% 29.78 in 10.0 mi West 13.8 mph - 0.03 in Rain , Thunderstorm Rain
12:35 AM 68.0 °F - 62.6 °F 83% 29.87 in 1.5 mi Calm Calm - 0.51 in Rain , Thunderstorm Heavy Thunderstorms and Rain
12:54 AM 68.0 °F - 60.8 °F 78% 29.84 in 10.0 mi ESE 16.1 mph 19.6 mph 0.53 in Rain , Thunderstorm Light Thunderstorms and Rain
1:15 AM 68.0 °F - 60.8 °F 78% 29.81 in 10.0 mi ESE 13.8 mph 20.7 mph N/A Rain , Thunderstorm Light Thunderstorms and Rain
1:35 AM 68.0 °F - 62.6 °F 83% 29.81 in 10.0 mi ESE 5.8 mph - N/A Rain Light Rain
1:54 AM 68.0 °F - 62.6 °F 83% 29.82 in 10.0 mi Calm Calm - 0.01 in Rain , Thunderstorm Light Thunderstorms and Rain
2:15 AM 68.0 °F - 62.6 °F 83% 29.80 in 7.0 mi NE 4.6 mph - 0.03 in Rain , Thunderstorm Thunderstorms and Rain
2:35 AM 68.0 °F - 62.6 °F 83% 29.76 in 4.0 mi East 13.8 mph - 0.15 in Rain , Thunderstorm Heavy Thunderstorms and Rain
2:54 AM 68.0 °F - 62.6 °F 83% 29.73 in 10.0 mi Calm Calm - 0.15 in Thunderstorm Thunderstorm
3:15 AM 68.0 °F - 62.6 °F 83% 29.68 in 10.0 mi South 4.6 mph - N/A Thunderstorm Thunderstorm
3:35 AM 68.0 °F - 62.6 °F 83% 29.73 in 10.0 mi SSE 17.3 mph - N/A Rain Light Rain
3:54 AM 68.0 °F - 60.8 °F 78% 29.72 in 10.0 mi SSE 12.7 mph 26.5 mph N/A Rain Light Rain
4:15 AM 68.0 °F - 60.8 °F 78% 29.74 in 10.0 mi SSE 4.6 mph - N/A   Clear
4:35 AM 68.0 °F - 60.8 °F 78% 29.75 in 10.0 mi SE 3.5 mph - N/A   Clear
4:54 AM 68.0 °F - 60.8 °F 78% 29.75 in 10.0 mi South 8.1 mph - N/A   Clear
5:15 AM 68.0 °F - 60.8 °F 78% 29.76 in 10.0 mi NNE 12.7 mph 16.1 mph N/A   Clear
5:35 AM 69.8 °F - 59.0 °F 68% 29.77 in 10.0 mi NE 11.5 mph - N/A   Scattered Clouds
5:54 AM 69.8 °F - 60.8 °F 73% 29.77 in 10.0 mi ESE 5.8 mph - N/A   Mostly Cloudy
6:15 AM 68.0 °F - 60.8 °F 78% 29.76 in 10.0 mi ESE 3.5 mph - N/A   Overcast
6:35 AM 69.8 °F - 60.8 °F 73% 29.76 in 10.0 mi South 3.5 mph - N/A   Overcast
6:54 AM 69.8 °F - 60.8 °F 73% 29.75 in 10.0 mi East 4.6 mph - N/A   Overcast
7:15 AM 69.8 °F - 60.8 °F 73% 29.75 in 10.0 mi SE 4.6 mph - N/A   Overcast
7:35 AM 69.8 °F - 60.8 °F 73% 29.75 in 10.0 mi SE 6.9 mph - N/A   Overcast
7:54 AM 69.8 °F - 60.8 °F 73% 29.76 in 10.0 mi ENE 3.5 mph - N/A   Mostly Cloudy
8:15 AM 69.8 °F - 60.8 °F 73% 29.77 in 10.0 mi ESE 8.1 mph - N/A   Overcast
8:35 AM 71.6 °F - 60.8 °F 69% 29.77 in 10.0 mi SE 3.5 mph - N/A   Overcast
8:55 AM 71.6 °F - 62.6 °F 73% 29.77 in 10.0 mi ESE 6.9 mph - N/A   Scattered Clouds
9:15 AM 73.4 °F - 62.6 °F 69% 29.77 in 10.0 mi SE 9.2 mph - N/A   Clear
9:35 AM 73.4 °F - 62.6 °F 69% 29.77 in 10.0 mi SE 11.5 mph 18.4 mph N/A   Scattered Clouds
9:55 AM 73.4 °F - 64.4 °F 73% 29.77 in 10.0 mi SE 8.1 mph - N/A   Overcast
10:15 AM 73.4 °F - 66.2 °F 78% 29.77 in 10.0 mi ESE 9.2 mph - N/A   Overcast
10:34 AM 75.2 °F - 68.0 °F 78% 29.77 in 10.0 mi SE 10.4 mph - N/A   Overcast
10:55 AM 77.0 °F - 69.8 °F 78% 29.78 in 10.0 mi ESE 10.4 mph - N/A   Overcast
11:15 AM 77.0 °F - 69.8 °F 78% 29.78 in 10.0 mi East 13.8 mph - 0.02 in   Overcast
11:35 AM 73.4 °F - 68.0 °F 83% 29.78 in 10.0 mi East 18.4 mph 23.0 mph 0.02 in   Overcast
11:55 AM 73.4 °F - 66.2 °F 78% 29.79 in 10.0 mi East 15.0 mph 23.0 mph 0.02 in   Overcast
12:15 PM 73.4 °F - 66.2 °F 78% 29.80 in 10.0 mi East 15.0 mph 24.2 mph N/A   Overcast
12:35 PM 75.2 °F - 68.0 °F 78% 29.81 in 10.0 mi ESE 12.7 mph 21.9 mph N/A   Overcast
12:55 PM 77.0 °F - 68.0 °F 74% 29.80 in 10.0 mi ESE 17.3 mph 24.2 mph N/A   Overcast
1:15 PM 77.0 °F - 68.0 °F 74% 29.79 in 10.0 mi ESE 20.7 mph 27.6 mph N/A   Overcast
1:35 PM 78.8 °F - 69.8 °F 74% 29.79 in 10.0 mi ESE 17.3 mph 25.3 mph N/A   Overcast
1:55 PM 78.8 °F - 69.8 °F 74% 29.79 in 10.0 mi ESE 16.1 mph 24.2 mph N/A   Overcast
2:15 PM 78.8 °F - 69.8 °F 74% 29.78 in 10.0 mi SE 19.6 mph 23.0 mph N/A   Mostly Cloudy
2:35 PM 78.8 °F - 69.8 °F 74% 29.78 in 10.0 mi SE 19.6 mph 25.3 mph N/A   Mostly Cloudy
2:55 PM 80.6 °F 84.6 °F 71.6 °F 74% 29.77 in 10.0 mi SE 18.4 mph 25.3 mph N/A   Mostly Cloudy
3:15 PM 80.6 °F 84.6 °F 71.6 °F 74% 29.77 in 10.0 mi SE 18.4 mph 25.3 mph N/A   Scattered Clouds
3:35 PM 80.6 °F 84.6 °F 71.6 °F 74% 29.76 in 10.0 mi ESE 18.4 mph 26.5 mph N/A   Scattered Clouds
3:54 PM 82.4 °F 87.2 °F 71.6 °F 70% 29.76 in 10.0 mi SE 20.7 mph 25.3 mph N/A   Mostly Cloudy
4:15 PM 82.4 °F 87.2 °F 71.6 °F 70% 29.76 in 10.0 mi ESE 17.3 mph 26.5 mph N/A   Mostly Cloudy
4:35 PM 82.4 °F 87.2 °F 71.6 °F 70% 29.76 in 10.0 mi ESE 19.6 mph - N/A   Overcast
4:55 PM 82.4 °F 88.2 °F 73.4 °F 74% 29.76 in 10.0 mi ESE 13.8 mph 18.4 mph N/A   Mostly Cloudy
5:14 PM 82.4 °F 88.2 °F 73.4 °F 74% 29.76 in 10.0 mi ESE 19.6 mph 25.3 mph N/A   Mostly Cloudy
5:35 PM 80.6 °F 85.4 °F 73.4 °F 79% 29.76 in 10.0 mi ESE 18.4 mph 23.0 mph N/A   Mostly Cloudy
5:55 PM 80.6 °F 85.4 °F 73.4 °F 79% 29.75 in 10.0 mi ESE 16.1 mph 23.0 mph N/A   Mostly Cloudy
6:15 PM 80.6 °F 85.4 °F 73.4 °F 79% 29.75 in 10.0 mi ESE 18.4 mph 24.2 mph N/A   Mostly Cloudy
6:35 PM 80.6 °F 85.4 °F 73.4 °F 79% 29.75 in 10.0 mi ESE 15.0 mph 21.9 mph N/A   Mostly Cloudy
6:55 PM 82.4 °F 88.2 °F 73.4 °F 74% 29.75 in 10.0 mi SE 12.7 mph 19.6 mph N/A   Scattered Clouds
7:15 PM 82.4 °F 89.5 °F 75.2 °F 79% 29.75 in 10.0 mi ESE 12.7 mph - N/A   Mostly Cloudy
7:34 PM 82.4 °F 88.2 °F 73.4 °F 74% 29.74 in 10.0 mi SE 12.7 mph - N/A   Overcast
7:55 PM 82.4 °F 88.2 °F 73.4 °F 74% 29.74 in 10.0 mi ESE 11.5 mph 16.1 mph N/A   Overcast
8:15 PM 80.6 °F 86.2 °F 75.2 °F 84% 29.75 in 10.0 mi ESE 11.5 mph - N/A   Overcast
8:35 PM 80.6 °F 85.4 °F 73.4 °F 79% 29.75 in 10.0 mi East 11.5 mph - N/A   Overcast
8:55 PM 80.6 °F 86.2 °F 75.2 °F 84% 29.75 in 10.0 mi East 10.4 mph - N/A   Mostly Cloudy
9:15 PM 78.8 °F - 73.4 °F 83% 29.74 in 7.0 mi ESE 12.7 mph 17.3 mph N/A   Clear
9:35 PM 78.8 °F - 73.4 °F 83% 29.73 in 7.0 mi ESE 12.7 mph - N/A Thunderstorm Clear
9:55 PM 78.8 °F - 73.4 °F 83% 29.73 in 10.0 mi ESE 10.4 mph 17.3 mph N/A   Clear
10:15 PM 80.6 °F 85.4 °F 73.4 °F 79% 29.73 in 10.0 mi SE 16.1 mph 21.9 mph N/A   Clear
10:35 PM 80.6 °F 85.4 °F 73.4 °F 79% 29.73 in 10.0 mi SSE 12.7 mph 19.6 mph N/A   Clear
10:55 PM 80.6 °F 85.4 °F 73.4 °F 79% 29.74 in 10.0 mi South 9.2 mph 20.7 mph N/A   Clear
11:15 PM 80.6 °F 84.6 °F 71.6 °F 74% 29.75 in 10.0 mi SSE 11.5 mph 16.1 mph N/A   Clear
11:35 PM 78.8 °F - 71.6 °F 78% 29.77 in 10.0 mi SE 11.5 mph 19.6 mph N/A   Clear
11:55 PM 78.8 °F - 71.6 °F 78% 29.77 in 10.0 mi SSE 10.4 mph 16.1 mph N/A   Clear